Location: Breitenfeld
(46.8500°N, 15.6333°E)
Time: 10:36:28
(UTC+00:00)

Transit 4B - Pass Details

Date: 06 June 2022
Orbit: 948 x 1097 km, 32.4° (Epoch: 01 July)

Event Time Altitude Azimuth Distance (km) Brightness Sun altitude
Exits shadow 00:05:37 19° 153° (SSE) 2,227 10.0 -18.8°
Drops below altitude 10° 00:08:08 10° 134° (SE) 2,780 10.6 -18.6°
Sets 00:11:18 0° 121° (ESE) 3,703 11.4 -18.5°
